Location: Brompton
(51.4000°N, 0.5333°E)
Time: 14:27:42
(UTC+00:00)

NOSS 3-4 (A) - Pass Details

Date: 11 May 2021
Orbit: 872 x 1340 km, 63.4° (Epoch: 06 May)

Event Time Altitude Azimuth Distance (km) Brightness Sun altitude
Rises 21:08:34 0° 314° (NW) 3,756 8.7 -11.6°
Reaches altitude 10° 21:11:03 10° 315° (NW) 2,864 7.5 -11.9°
Maximum altitude 21:17:54 90° 32° (NNE) 1,145 3.9 -12.5°
Enters shadow 21:24:06 17° 137° (SE) 2,676 5.1 -13.1°
